When you browse on this site, cookies collect data to enhance your experience and personalize the content and advertising you see.
Visit our Privacy Policy to learn more. By continuing to use the site, you agree to this use of cookies and data.
  • In Czech Republic
  • List of Countries
  • For 7 days
  • Water Temperature
  • Satellite Maps
  • Weather Map
  • Weather Widgets
  • user-avatar
    Login

    Hourly Weather Hasselt

    Today, 17 January, Thursday

    Time Temperature Precipitation Wind Pressure Humidity
    00:00 +3°C° 0 mm 5 mps 749 mmHg 86%
    01:00 +3°C° 0.5 mm 5 mps 749 mmHg 87%
    02:00 +3°C° 0.5 mm 5 mps 749 mmHg 89%
    03:00 +5°C° 0.5 mm 4 mps 749 mmHg 91%
    04:00 +4°C° 0 mm 4 mps 749 mmHg 92%
    05:00 +3°C° 0 mm 4 mps 749 mmHg 93%
    06:00 +3°C° 0 mm 2 mps 749 mmHg 95%
    07:00 +3°C° 0.4 mm 4 mps 748 mmHg 92%
    08:00 +2°C° 0.4 mm 5 mps 748 mmHg 90%
    09:00 +3°C° 0.4 mm 6 mps 748 mmHg 87%
    10:00 +3°C° 0.9 mm 6 mps 749 mmHg 85%
    11:00 +3°C° 0.9 mm 6 mps 749 mmHg 82%
    12:00 +3°C° 0.9 mm 6 mps 749 mmHg 80%
    13:00 +3°C° 0.3 mm 6 mps 750 mmHg 76%
    14:00 +3°C° 0.3 mm 6 mps 750 mmHg 72%
    15:00 +3°C° 0.3 mm 5 mps 751 mmHg 68%
    16:00 +2°C° 0.1 mm 5 mps 752 mmHg 69%
    17:00 +2°C° 0.1 mm 5 mps 752 mmHg 70%
    18:00 +1°C° 0.1 mm 5 mps 753 mmHg 71%
    19:00 +1°C° 0.1 mm 4 mps 754 mmHg 73%
    20:00 0°C° 0.1 mm 4 mps 755 mmHg 75%
    21:00 +1°C° 0.1 mm 3 mps 755 mmHg 76%
    22:00 0°C° 0 mm 3 mps 756 mmHg 78%
    23:00 0°C° 0 mm 3 mps 757 mmHg 80%

    Tomorrow, 18 January, Friday

    Time Temperature Precipitation Wind Pressure Humidity
    00:00 +1°C° 0 mm 2 mps 757 mmHg 81%
    01:00 +1°C° 0 mm 2 mps 758 mmHg 81%
    02:00 -1°C° 0 mm 2 mps 758 mmHg 82%
    03:00 -1°C° 0 mm 2 mps 759 mmHg 82%
    04:00 -1°C° 0 mm 2 mps 759 mmHg 82%
    05:00 +1°C° 0 mm 1 mps 759 mmHg 83%
    06:00 +1°C° 0 mm 1 mps 760 mmHg 83%
    07:00 +1°C° 0 mm 1 mps 760 mmHg 81%
    08:00 +2°C° 0 mm 1 mps 761 mmHg 80%
    09:00 +2°C° 0 mm 1 mps 761 mmHg 78%
    10:00 +3°C° 0 mm 1 mps 761 mmHg 74%
    11:00 +4°C° 0 mm 1 mps 761 mmHg 70%
    12:00 +4°C° 0 mm 2 mps 761 mmHg 65%
    13:00 +5°C° 0 mm 1 mps 761 mmHg 68%
    14:00 +5°C° 0 mm 1 mps 761 mmHg 70%
    15:00 +4°C° 0 mm 1 mps 760 mmHg 72%
    16:00 +4°C° 0 mm 1 mps 761 mmHg 74%
    17:00 +3°C° 0 mm 1 mps 761 mmHg 75%
    18:00 +2°C° 0 mm 1 mps 761 mmHg 76%
    19:00 +1°C° 0 mm 2 mps 761 mmHg 76%
    20:00 -1°C° 0 mm 2 mps 761 mmHg 75%
    21:00 -1°C° 0 mm 2 mps 761 mmHg 75%
    22:00 -1°C° 0 mm 2 mps 761 mmHg 74%
    23:00 -1°C° 0 mm 2 mps 761 mmHg 73%

    Day after tomorrow, 19 January, Saturday

    Time Temperature Precipitation Wind Pressure Humidity
    00:00 -2°C° 0 mm 2 mps 761 mmHg 73%
    01:00 -2°C° 0 mm 2 mps 760 mmHg 72%
    02:00 -2°C° 0 mm 2 mps 760 mmHg 72%
    03:00 -2°C° 0 mm 2 mps 760 mmHg 71%
    04:00 -2°C° 0 mm 2 mps 759 mmHg 73%
    05:00 -2°C° 0 mm 2 mps 759 mmHg 74%
    06:00 -2°C° 0 mm 2 mps 759 mmHg 75%
    07:00 -2°C° 0 mm 2 mps 759 mmHg 73%
    08:00 -1°C° 0 mm 3 mps 759 mmHg 71%
    09:00 -1°C° 0 mm 3 mps 759 mmHg 68%
    10:00 0°C° 0 mm 3 mps 758 mmHg 63%
    11:00 +1°C° 0 mm 3 mps 758 mmHg 57%
    12:00 +2°C° 0 mm 3 mps 757 mmHg 51%
    13:00 +2°C° 0 mm 3 mps 757 mmHg 54%
    14:00 +3°C° 0 mm 2 mps 757 mmHg 56%
    15:00 +3°C° 0 mm 2 mps 756 mmHg 58%
    16:00 +2°C° 0 mm 2 mps 756 mmHg 62%
    17:00 +1°C° 0 mm 2 mps 756 mmHg 65%
    18:00 -1°C° 0 mm 2 mps 757 mmHg 69%
    19:00 -2°C° 0 mm 2 mps 757 mmHg 70%
    20:00 -2°C° 0 mm 2 mps 757 mmHg 71%
    21:00 -2°C° 0 mm 2 mps 757 mmHg 72%
    22:00 -2°C° 0 mm 2 mps 757 mmHg 72%
    23:00 -3°C° 0 mm 2 mps 757 mmHg 73%

    20 January, Sunday

    Time Temperature Precipitation Wind Pressure Humidity
    00:00 -3°C° 0 mm 2 mps 757 mmHg 73%
    01:00 -3°C° 0 mm 2 mps 757 mmHg 72%
    02:00 -1°C° 0 mm 1 mps 757 mmHg 71%
    03:00 -1°C° 0 mm 1 mps 757 mmHg 71%
    04:00 -1°C° 0 mm 1 mps 757 mmHg 70%
    05:00 -1°C° 0 mm 1 mps 757 mmHg 69%
    06:00 -1°C° 0 mm 1 mps 758 mmHg 69%
    07:00 -1°C° 0 mm 1 mps 758 mmHg 66%
    08:00 0°C° 0 mm 1 mps 758 mmHg 63%
    09:00 0°C° 0 mm 1 mps 759 mmHg 61%
    10:00 +1°C° 0 mm 1 mps 759 mmHg 56%
    11:00 +2°C° 0 mm 1 mps 759 mmHg 51%
    12:00 +2°C° 0 mm 0 mps 759 mmHg 46%
    13:00 +3°C° 0 mm 1 mps 759 mmHg 49%
    14:00 +3°C° 0 mm 1 mps 759 mmHg 51%
    15:00 +3°C° 0 mm 1 mps 760 mmHg 54%
    16:00 +2°C° 0 mm 1 mps 760 mmHg 57%
    17:00 +1°C° 0 mm 1 mps 761 mmHg 60%
    18:00 0°C° 0 mm 1 mps 761 mmHg 64%
    19:00 0°C° 0 mm 1 mps 762 mmHg 64%
    20:00 -2°C° 0 mm 0 mps 762 mmHg 64%
    21:00 -2°C° 0 mm 0 mps 763 mmHg 65%
    22:00 -2°C° 0 mm 0 mps 763 mmHg 65%
    23:00 -1°C° 0 mm 1 mps 763 mmHg 65%

    21 January, Monday

    Time Temperature Precipitation Wind Pressure Humidity
    00:00 -1°C° 0 mm 1 mps 763 mmHg 66%
    01:00 -1°C° 0 mm 1 mps 763 mmHg 66%
    02:00 -1°C° 0 mm 1 mps 763 mmHg 66%
    03:00 -3°C° 0 mm 2 mps 763 mmHg 66%
    04:00 -3°C° 0 mm 2 mps 763 mmHg 65%
    05:00 -2°C° 0 mm 2 mps 763 mmHg 64%
    06:00 -2°C° 0 mm 3 mps 762 mmHg 62%
    07:00 -1°C° 0.1 mm 3 mps 763 mmHg 69%
    08:00 -1°C° 0.1 mm 3 mps 763 mmHg 75%
    09:00 0°C° 0.1 mm 3 mps 763 mmHg 81%
    10:00 +1°C° 0 mm 3 mps 763 mmHg 75%
    11:00 +3°C° 0 mm 3 mps 762 mmHg 68%
    12:00 +4°C° 0 mm 4 mps 762 mmHg 62%
    13:00 +3°C° 0 mm 3 mps 762 mmHg 65%
    14:00 +3°C° 0 mm 3 mps 762 mmHg 69%
    15:00 +3°C° 0 mm 2 mps 761 mmHg 72%
    16:00 +2°C° 0 mm 2 mps 761 mmHg 77%
    17:00 +1°C° 0 mm 2 mps 761 mmHg 81%
    18:00 -1°C° 0 mm 2 mps 761 mmHg 86%
    19:00 -1°C° 0 mm 3 mps 761 mmHg 88%
    20:00 -1°C° 0 mm 3 mps 761 mmHg 90%
    21:00 -1°C° 0 mm 3 mps 760 mmHg 92%
    22:00 -1°C° 0 mm 3 mps 760 mmHg 92%
    23:00 -2°C° 0 mm 3 mps 759 mmHg 93%

    22 January, Tuesday

    Time Temperature Precipitation Wind Pressure Humidity
    00:00 -2°C° 0 mm 3 mps 758 mmHg 93%
    01:00 -2°C° 0 mm 3 mps 758 mmHg 92%
    02:00 -2°C° 0 mm 3 mps 757 mmHg 91%
    03:00 -2°C° 0 mm 3 mps 756 mmHg 90%
    04:00 -1°C° 0 mm 3 mps 755 mmHg 90%
    05:00 -1°C° 0 mm 3 mps 754 mmHg 89%
    06:00 -2°C° 0 mm 4 mps 753 mmHg 88%
    07:00 -1°C° 0 mm 4 mps 752 mmHg 84%
    08:00 -1°C° 0 mm 5 mps 752 mmHg 81%
    09:00 0°C° 0 mm 5 mps 751 mmHg 78%
    10:00 +1°C° 0 mm 5 mps 750 mmHg 73%
    11:00 +1°C° 0 mm 5 mps 749 mmHg 69%
    12:00 +2°C° 0 mm 5 mps 749 mmHg 65%
    13:00 +2°C° 0 mm 5 mps 748 mmHg 66%
    14:00 +1°C° 0 mm 4 mps 748 mmHg 68%
    15:00 +2°C° 0 mm 3 mps 747 mmHg 69%
    16:00 +1°C° 0 mm 3 mps 747 mmHg 71%
    17:00 0°C° 0 mm 3 mps 747 mmHg 73%
    18:00 -1°C° 0 mm 3 mps 747 mmHg 75%
    19:00 -1°C° 0 mm 3 mps 747 mmHg 74%
    20:00 -2°C° 0 mm 3 mps 747 mmHg 74%
    21:00 -2°C° 0 mm 3 mps 748 mmHg 74%
    22:00 -2°C° 0 mm 3 mps 748 mmHg 74%
    23:00 -2°C° 0 mm 3 mps 748 mmHg 75%
    Show more